www.pogodaiklimat.ru
ПОГОДА в Эль-Монте
Время
и дата
15:45 02.06
16:45 02.06
17:45 02.06
06:45 03.06
07:45 03.06
09:45 03.06
10:45 03.06
11:45 03.06
12:45 03.06
13:45 03.06
14:45 03.06
16:45 03.06
17:45 03.06
06:45 04.06
07:45 04.06
08:45 04.06
10:45 04.06
11:45 04.06
12:45 04.06
13:45 04.06
14:50 04.06
15:45 04.06
16:45 04.06
17:50 04.06
06:45 05.06
07:45 05.06
08:50 05.06
09:45 05.06
11:45 05.06
12:45 05.06
13:46 05.06
14:48 05.06
15:45 05.06
16:45 05.06
17:45 05.06
18:45 05.06
06:45 06.06
07:45 06.06
08:58 06.06
09:45 06.06
10:45 06.06
11:45 06.06
12:45 06.06
13:45 06.06
14:45 06.06
15:45 06.06
17:45 06.06
18:45 06.06
Ветер
(напр.,м/с)
Видим. Явления Облачность Т
(С)
Тd
(С)
f
(%)
Тe
(С)
Тes
(С)
Комфортность P
(гПа)
Po
(гПа)
Тmin
(С)
Tmax
(С)
R
(мм)
R24
(мм)
S
(см)
ЮЗ 4 16 км ясно +22.0 +12.0 53 +24 +32 комфорт 1002.7
ЮЗ 5 16 км ясно +22.0 +11.0 50 +24 +28 комфорт 1002.3
ЮЗ 5 16 км ясно +20.0 +11.0 56 +21 +23 комфорт 1002.7
штиль 0 13 км ясно +16.0 +12.0 77 +16 +18 1003.3
ЮВ 2 14 км 5/5 1080 м +17.0 +12.0 72 +17 +19 1003.7
Ю 3 14 км 5/5 750 м +20.0 +12.0 60 +22 +28 комфорт 1003.7
ЮЗ 2 16 км 2/2 750 м +22.0 +13.0 57 +25 +39 комфорт 1003.3
Ю 3 16 км ясно +23.0 +12.0 50 +26 +43 жарко 1002.7
Ю 4 16 км ясно +25.0 +13.0 47 +27 +41 жарко 1002.3
Ю 6
{7}
16 км ясно +26.0 +14.0 48 +28 +36 жарко 1001.7
ЮЗ 5
{8}
16 км ясно +25.0 +13.0 47 +27 +36 жарко 1001.3
ЮЗ 4 16 км ясно +23.0 +14.0 57 +26 +31 жарко 1001.0
ЮЗ 4 16 км ясно +21.0 +13.0 60 +24 +26 комфорт 1001.0
Ю 2 8 км мгла н/о +17.0 +13.0 77 +17 +17 1001.3
ЮЗ 2 8 км мгла н/о +17.0 +13.0 77 +17 +17 1002.0
ЮЗ 2 8 км мгла н/о +17.0 +13.0 77 +17 +17 1001.7
ЮЗ 3 10 км мгла 8/8 540 м +19.0 +13.0 68 +20 +23 1002.0
Ю 4 10 км мгла 5/5 660 м +20.0 +13.0 64 +22 +29 комфорт 1001.7
Ю 3 10 км мгла 2/2 1200 м +21.0 +13.0 60 +24 +38 комфорт 1001.3
ЮЗ 3 11 км ясно +24.0 +14.0 54 +26 +43 жарко 1000.6
Ю 3 13 км ясно +24.0 +14.0 54 +26 +40 жарко 999.3
Ю 4 16 км ясно +25.0 +13.0 47 +27 +35 жарко 998.6
Ю 5 16 км ясно +24.0 +14.0 54 +26 +30 жарко 999.0
ЮЗ 4 16 км ясно +20.0 +13.0 64 +22 +24 комфорт 1000.0
ЮЗ 2 16 км 10/10 300 м +14.0 +13.0 94 +13 +13 1001.0
Ю 2 6 км 10/10 360 м +15.0 +13.0 88 +15 +15 1001.3
ЮЗ 2 11 км 10/10 360 м +15.0 +13.0 88 +15 +15 1002.0
ЮЗ 3 10 км 10/10 360 м +15.0 +13.0 88 +14 +14 1002.0
ЮЗ 3 11 км 10/10 540 м +17.0 +12.0 72 +17 +17 1002.3
штиль 0 16 км 10/10 720 м +18.0 +12.0 68 +18 +18 1002.3
ЮЗ 3 16 км 10/10 600 м +18.0 +11.0 64 +18 +18 1002.3
ЮЗ 2 16 км 10/10 600 м +18.0 +11.0 64 +19 +19 1002.0
ЮВ 2 16 км 8/8 960 м +19.0 +10.0 56 +20 +23 1001.3
штиль 0 16 км 8/8 900 м +19.0 +11.0 60 +20 +22 1000.6
Ю 4 16 км 8/8 1020 м +18.0 +9.0 56 +18 +18 1000.6
Ю 5 16 км 10/10 1080 м +17.0 +9.0 59 +16 +16 1001.3
штиль 0 16 км 10/10 1410 м +16.0 +8.0 59 +16 +16 1002.0
ЮВ 3 16 км 10/10 1410 м +17.0 +8.0 55 +17 +17 1002.0
ЮЗ 2 16 км 8/8 510 м +18.0 +8.0 52 +19 +20 1002.0
нст 2 16 км 8/8 1200 м +18.0 +7.0 49 +19 +21 1002.3
штиль 0 16 км 8/8 1320 м +19.0 +8.0 49 +19 +24 1002.0
Ю 5
{8}
16 км 8/8 1440 м +20.0 +8.0 46 +21 +23 комфорт 1002.0
ЮЗ 3 16 км 8/8 1500 м +20.0 +8.0 46 +21 +25 комфорт 1002.0
ЮЗ 5
{8}
16 км 8/8 1650 м +20.0 +9.0 49 +21 +23 комфорт 1001.7
ЮЗ 5
{8}
16 км 5/5 1650 м +21.0 +11.0 53 +23 +27 комфорт 1001.3
ЮЗ 4 16 км 8/8 1650 м +20.0 +10.0 53 +21 +23 комфорт 1001.0
ЮЗ 3 16 км 10/10 1140 м +18.0 +10.0 59 +18 +18 1001.3
Ю 3 16 км 10/10 1140 м +17.0 +10.0 63 +17 +17 1001.3
Местоположение метеостанции El Monte Airport: широта 34.0800 долгота -118.0300 высота над уровнем моря 90 м.
В архиве по умолчанию представлена погода в Эль-Монте за последние 1-2 суток. Обновление информации о фактической погоде в базе происходит ежечасно! Архивные данные за месяц целиком и за предыдущие месяцы Вы можете получить, выбрав интересующий диапазон дат из раскрывающегося списка и нажав кнопку "Ввод!".
Внимание! Архив погоды МЕТАР в базе сайта по станциям, не включенным в климатический монитор, хранится не более 60 дней. Нет смысла пытаться выбрать более раннюю дату.
*Определитесь, кто Вы:
Внимание! Время в таблицах - местное (без учета летнего времени). Для получения всемирного времени необходимо вычесть поправку, которая равна -8 ч.
Смотрите также архив погоды в соседних городах и на ближайших метеорологических станциях:
Партнеры нашего сайта:      
Пояснения к столбцам:
  • Ветер - указаны скорость ветра в м/с - средняя за 10 мин, порывы в срок и между сроками (в фигурных скобках) и направление, откуда дует ветер: С - северный,
  • СВ - северо-восточный, В - восточный, ЮВ - юго-восточный, Ю - южный, ЮЗ - юго-западный, З - западный, СЗ - северо-западный.
  • Видимость - горизонтальная дальность видимости в метрах или километрах. При видимости от 1 до 10 км при отсутствии осадков обычно наблюдается дымка, при ухудшении видимости до 1 км и менее - туман. В сухую погоду видимость может ухудшаться дымом, пылью или мглою.
  • Явления - указаны атмосферные явления, наблюдавшиеся в срок или в последний час перед сроком; фигурными скобками обозначены явления, наблюдавшиеся между сроками (за 1-3 часа до срока); квадратными скобками обозначены град или гололедные отложения с указанием их диаметра в мм.
  • Облачность - указаны через наклонную черту общая и нижняя облачность в баллах и высота нижней границы облаков в метрах; квадратными скобками обозначены формы облаков: Ci - перистые, Cs - перисто-слоистые, Cc - перисто-кучевые, Ac - высококучевые, As - высокослоистые, Sc - слоисто-кучевые, Ns - слоисто-дождевые, Cu - кучевые, Cb - кучево-дождевые. Подробнее классификацию облаков см. в Атласе облаков (PDF).
  • T - Температура воздуха - температура, измеренная на высоте 2 м над землей.
  • Td - Температура точки росы - температура, при понижении до которой содержащийся в воздухе водяной пар достигнет насыщения.
  • f - Относительная влажность воздуха - влажноcть воздуха, измеренная на высоте 2 м над землей.
  • Te - Эффективная температура - температура, которую ощущает одетый по сезону человек в тени. Характеристика душности погоды. При расчете учитывается влияние влажности воздуха и скорости ветра на теплоощущения человека.
  • Tes - Эффективная температура на солнце - температура, которую ощущает человек, с поправкой на солнечный нагрев. Характеристика знойности погоды. Зависит от высоты солнца над горизонтом, облачности и скорости ветра. Ночью, в пасмурную погоду, а также при ветре 12 м/с и более поправка равна нулю.
  • P - Атмосферное давление - приведенное к уровню моря атмосферное давление.
  • Po - Атмосферное давление - измеренное на уровне метеостанции атмосферное давление.
  • Tmin - Минимальная температура - минимум температуры воздуха на высоте 2 м над землей.
  • Tmax - Максимальная температура - максимум температуры воздуха на высоте 2 м над землей.
  • R - Количество осадков - Количество выпавших осадков за период времени, мм. При наведении курсора мыши на число - период времени, за который выпало указанное количество осадков.
  • R24 - Количество осадков - Количество выпавших осадков за 24 часа, мм.
  • S - Снежный покров - Высота снежного покрова, см. При наведении курсора мыши на число - состояние снежного покрова и степень покрытия местности в баллах.